Weather in Pahtakor

Uzbekistan     40°18′38″N   67°57′21″E
temp.,
°C
wind,
m/s
gust,
m/s
humid.,
%
clouds,
%
prec.,
mm/h
press.,
hPa
HPBL,
m
1 december, wed
wed123:00+9e23330 0.0 102129
02:00+8ese22340 0.0 102019
05:00+9ese11340 0.0 101912
08:00+8ese23330 0.0 101918
11:00+16ese22190 0.0 1018259
14:00+21e44140 0.0 1015568
17:00+14e57240 0.0 1015110
20:00+11e44300 0.0 101655
2 december, thu
thu223:00+11ese46305 0.0 101662
02:00+11ese452877 0.0 101451
05:00+10e4528100 0.0 101463
08:00+10e472799 0.0 101590
11:00+18ese4515100 0.0 1014270
14:00+21e5513100 0.0 1012391
17:00+16e572084 0.0 101298
20:00+13ese452243 0.0 101369
3 december, fri
fri323:00+13ese2321100 0.0 101324
02:00+14se2218100 0.0 101312
05:00+15e2316100 0.0 101420
08:00+13e3320100 0.0 101561
11:00+17nnw1215100 0.0 1015182
14:00+20ne2212100 0.0 1014358
17:00+15ne3419100 0.0 101679
20:00+14nne3521100 0.0 1018115
4 december, sat
sat423:00+13ene2222100 0.0 101931
02:00+13ese3423100 0.0 101877
05:00+12ene2322100 0.0 101827
08:00+11n2223100 0.0 101923
11:00+15nne2218100 0.0 1020464
14:00+18e2215100 0.0 1018748
17:00+15sw4636100 0.0 101888
20:00+12wnw4841100 0.0 1021285
5 december, sun
sun523:00+11wnw3649100 0.0 1021131
02:00+9w5756100 0.0 1022167
05:00+8w336334 0.0 102255
08:00+7nw116558 0.0 102313
11:00+10nnw1153100 0.0 1023555
14:00+12nne214681 0.0 10211018
17:00+11nne2349100 0.0 102063
20:00+9ne236694 0.0 102139